Location: Boyer
(48.2209°N, 0.8956°W)
Time: 18:21:48
(UTC+00:00)

Daily predictions for brighter satellites

Satellite Brightness Start Highest point End
(mag) Time Altitude Azimuth Time Altitude Azimuth Time Altitude Azimuth
Cosmos 1975 Rocket 4.0 20:41:41 10° SSE 20:45:37 32° E 20:49:35 10° NNE
H-2A R/B 2.5 20:43:20 10° N 20:47:40 72° WNW 20:52:04 10° SSW
Helios 1A Rocket 3.8 20:44:32 10° SE 20:48:13 35° ENE 20:51:56 10° N
Ariane Rocket 3.1 20:44:19 10° SSE 20:49:25 84° WSW 20:54:34 10° NNW
CARTOSAT-1 3.6 20:45:45 10° SSE 20:50:02 71° ENE 20:54:21 10° N
Resurs 01 Rocket 2.4 20:49:33 10° S 20:53:54 53° W 20:58:16 10° NNW
IRAS Rocket 4.3 20:48:30 10° NNE 20:54:08 67° ESE 20:59:41 10° S
Lacrosse 4 Rocket 1.6 20:52:31 10° SW 20:56:40 77° WNW 21:00:46 10° NNE
Cosmos 292 Rocket 4.3 20:52:02 10° SSW 20:56:45 64° WNW 21:01:30 10° NNE
Tiangong 2.7 20:55:17 10° SSW 20:57:31 18° SSE 20:59:46 10° ESE
FALCON 9 DEB 3.2 21:02:02 10° SW 21:05:10 45° SE 21:08:19 10° ENE
SL-8 R/B 3.7 21:02:06 10° WSW 21:06:54 74° SSE 21:11:43 10° E
Terra 2.5 21:03:01 10° SE 21:07:29 42° ENE 21:11:58 10° N
USA 267 3.5 21:04:26 10° ENE 21:10:44 47° SE 21:17:00 10° SSW
Cosmos 1455 3.3 21:08:17 10° N 21:11:38 29° ENE 21:14:42 12° SE
Meteor 1-24 Rocket 4.0 21:07:08 10° SSE 21:12:09 45° E 21:17:15 10° NNE
Cosmos 2369 Rocket 3.6 21:07:48 10° NW 21:12:44 32° WSW 21:17:38 10° SSW
Cosmos 2315 Rocket 4.2 21:07:06 10° S 21:13:19 61° E 21:19:32 10° NNE
Cosmos 1371 Rocket 4.4 21:12:54 10° S 21:17:49 44° ESE 21:22:49 10° NE
ERBS 4.3 21:16:51 10° W 21:18:48 16° SW 21:20:46 10° S
Spot 2 Rocket 3.5 21:15:32 10° SSE 21:20:36 80° ENE 21:25:44 10° NNW
CZ-4B R/B 3.3 21:24:36 10° N 21:27:06 26° WNW 21:29:33 10° SW
ARIANE 5 R/B 3.2 21:23:37 13° SE 21:27:25 47° ENE 21:31:43 10° N
Lacrosse 5 rocket 1.7 21:24:02 10° NW 21:27:49 55° NNE 21:31:46 10° ESE
SPOT 3 Rocket 4.0 21:23:24 10° S 21:28:31 61° WSW 21:33:41 10° NNW
Cosmos 1709 Rocket 4.1 21:22:39 10° N 21:28:50 84° W 21:35:05 10° S
Cosmos 2084 4.4 21:26:52 12° SSE 21:29:27 22° ESE 21:32:29 10° ENE
ATLAS 2AS CENTAUR R/B 3.0 21:31:35 10° NW 21:38:47 68° NE 21:44:51 13° SE
Cosmos 1624 Rocket 4.0 21:34:23 10° S 21:39:33 62° ESE 21:44:43 10° NNE
Cosmos 1190 Rocket 4.1 21:37:53 10° NNW 21:43:13 76° WSW 21:47:39 15° SSE
USA 234 3.4 21:39:11 10° ESE 21:45:44 77° NNE 21:52:19 10° NW
Cosmos 1833 Rocket 4.4 21:44:37 13° ESE 21:46:43 15° E 21:49:51 10° ENE
Cosmos 407 Rocket 4.3 21:45:20 10° NNW 21:50:17 45° WSW 21:54:51 12° S
Cosmos 1455 Rocket 3.8 21:46:19 10° NNW 21:50:32 48° W 21:54:41 10° SSW
SPOT 5 3.4 21:52:00 11° S 21:56:08 48° W 22:00:24 10° NNW
Cosmos 1271 Rocket 2.8 21:54:33 10° NNW 21:58:33 87° WSW 22:01:16 20° S
Cosmos 2056 Rocket 3.6 21:53:52 10° SSW 21:59:14 89° ESE 22:04:42 10° NNE
Meteor 2-5 Rocket 4.1 21:55:50 10° SSW 22:01:19 64° WNW 22:06:50 10° N
Cosmos 1025 Rocket 3.7 21:58:09 10° SSW 22:02:18 51° WNW 22:06:30 10° N
ERS-1 Rocket 3.8 22:04:36 12° S 22:09:00 46° W 22:13:53 10° NNW
Cosmos 676 Rocket 4.1 22:04:23 10° NNW 22:09:43 75° WSW 22:13:24 20° SSE
USA 32 4.4 22:05:03 10° SSW 22:10:13 63° W 22:15:27 10° N
Cosmos 1420 Rocket 4.0 22:06:16 10° SSW 22:11:30 89° W 22:16:50 10° NNE
Cosmos 1536 Rocket 3.5 22:13:48 20° S 22:16:46 78° E 22:21:07 10° NNE
Cosmos 1607 3.9 22:10:33 10° SSW 22:16:48 85° SE 22:23:01 10° NE
CZ-2C R/B 4.4 22:14:25 10° N 22:18:56 54° WNW 22:23:23 10° SSW
Lacrosse 5 1.9 22:19:13 10° NW 22:24:22 89° NE 22:27:56 20° SE
NOSS 2-1 (E) 4.0 22:20:36 10° NW 22:25:09 88° SW 22:29:25 21° SE
Cosmos 1606 Rocket 4.1 22:21:05 10° N 22:25:15 45° ENE 22:27:26 24° SE
SAR-Lupe-4 3.5 22:23:58 10° NNE 22:27:33 75° ESE 22:29:20 28° S
Cosmos 2184 Rocket 4.0 22:23:15 10° N 22:29:27 81° W 22:33:50 20° S
Cosmos 724 4.2 22:24:30 10° SSW 22:30:14 66° ESE 22:35:59 10° NE
Tiangong 3.0 22:31:12 10° WSW 22:32:27 18° SW 22:32:27 18° SW
TSX-5 4.4 22:33:04 26° S 22:35:21 53° ESE 22:40:37 10° NE
Cosmos 1850 Rocket 4.0 22:30:46 10° NNW 22:36:01 77° ENE 22:39:02 25° SSE
Cosmos 1328 4.4 22:37:12 30° SE 22:38:42 43° E 22:42:32 10° NNE
Cosmos 2228 2.9 22:34:48 10° N 22:39:05 86° W 22:41:10 29° S
Meteor 1-21 Rocket 4.2 22:35:49 23° S 22:39:17 67° E 22:44:53 10° NNE
Cosmos 1703 3.3 22:38:48 25° SSW 22:40:57 77° W 22:44:50 10° N
FALCON 9 DEB 4.2 22:38:18 10° W 22:41:28 45° NNW 22:44:39 10° ENE
SAR-Lupe-1 4.4 22:39:32 10° N 22:43:04 62° WNW 22:45:11 22° SSW
Cosmos 1408 4.0 22:43:33 21° ESE 22:44:07 22° E 22:46:50 10° NE
Terra 3.5 22:41:45 12° SSW 22:45:23 26° W 22:49:24 10° NW
Cosmos 1455 4.1 22:43:57 10° NW 22:46:58 23° W 22:49:28 13° SW
Cosmos 1825 4.4 22:46:54 12° E 22:47:41 13° E 22:49:27 10° ENE
ALOS 2 3.5 22:46:37 22° ESE 22:48:52 38° ENE 22:52:57 10° N
SL-8 R/B 3.7 22:44:37 10° W 22:49:28 87° N 22:54:19 10° E
Cosmos 1726 Rocket 3.6 22:47:25 10° N 22:51:44 65° E 22:53:36 32° SSE
USA 267 3.6 22:47:26 10° NE 22:53:57 69° NNW 23:00:27 10° WSW
Cosmos 1980 Rocket 3.3 22:49:26 10° NNW 22:54:46 38° NE 22:59:14 14° ESE
RESURS DK-1 2.4 22:53:06 10° NNW 22:57:15 74° ENE 22:59:03 33° SE
Cosmos 1697 Rocket 2.8 22:53:43 10° NNW 22:59:21 71° ENE 23:02:42 25° SE
Cosmos 1331 Rocket 4.1 22:57:22 28° S 23:00:04 59° ESE 23:05:18 10° NNE
Cosmos 1452 Rocket 3.5 22:57:19 19° SSW 23:01:11 83° WNW 23:06:29 10° NNE
Lacrosse 5 rocket 2.3 23:03:15 10° WNW 23:06:41 29° SW 23:07:17 27° SSW
Spot 4 3.8 23:04:25 31° SSE 23:06:42 89° E 23:11:32 10° NNW
Cosmos 1892 3.5 23:06:34 32° ESE 23:07:23 36° E 23:10:51 10° NNE
USA 276 3.8 23:10:14 20° E 23:10:14 20° E 23:11:20 10° ENE
Cosmos 2084 4.2 23:04:54 10° WSW 23:08:37 47° NW 23:12:23 10° NNE
ASTEX 1 3.6 23:03:43 10° N 23:08:42 71° W 23:11:36 25° SSW
ERS-2 3.6 23:06:10 10° NE 23:09:03 22° E 23:09:26 22° ESE
ADEOS Rocket 3.6 23:05:35 23° SE 23:10:11 66° ENE 23:17:40 10° N
Meteor 2-1 Rocket 4.4 23:08:38 10° NNW 23:14:05 63° W 23:17:01 27° SSW
Cosmos 2058 Rocket 3.2 23:10:35 10° N 23:14:58 67° ENE 23:16:43 35° SSE
Cosmos 1110 Rocket 4.0 23:15:12 25° SSW 23:18:18 89° ESE 23:23:39 10° NNE
Cosmos 2181 Rocket 4.3 23:15:18 27° SSE 23:18:27 54° E 23:24:27 10° NNE
GP-B 3.3 23:16:40 10° N 23:21:06 68° W 23:23:05 31° SSW
Cosmos 2360 4.2 23:16:17 10° NNW 23:22:02 83° WSW 23:25:01 30° SSE
Cosmos 1302 Rocket 4.4 23:21:10 31° SSE 23:23:08 46° ESE 23:28:06 10° NNE
Cosmos 1892 Rocket 3.5 23:22:22 35° S 23:24:14 87° W 23:28:40 10° N
Cosmos 1656 4.5 23:20:53 10° NW 23:25:53 38° WSW 23:28:19 25° SSW
USA 234 3.8 23:26:12 27° S 23:29:05 40° SW 23:35:13 10° WNW
ATLAS 2AS CENTAUR R/B 3.7 23:23:10 10° NW 23:29:12 32° WSW 23:32:16 22° SSW
Cosmos 1833 Rocket 2.6 23:26:16 24° SSW 23:29:49 89° WNW 23:35:29 10° NNE
BREEZE-M DEB (TANK) 3.7 23:35:58 10° W 23:39:10 82° N 23:51:20 10° E
Okean 1-7 Rocket 3.8 23:39:48 37° SSE 23:41:17 58° E 23:45:40 10° NNE
Cosmos 1626 Rocket 3.9 23:42:03 37° SE 23:43:23 51° E 23:47:35 10° NNE
Cosmos 2082 Rocket 2.5 23:41:32 32° S 23:43:56 53° ESE 23:49:29 10° NE
Meteor 1-27 4.2 23:43:01 10° N 23:48:39 84° ENE 23:51:21 32° SSE
Cosmos 1869 3.2 23:46:00 10° N 23:49:52 74° E 23:50:55 45° SSE
ATLAS 5 CENTAUR R/B 3.5 23:51:04 12° ESE 23:51:04 12° ESE 23:52:17 10° E
Cosmos-2242 3.9 23:51:39 10° N 23:55:41 39° ENE 23:57:29 26° SE
BREEZE-M DEB (TANK) 3.6 23:45:21 10° WSW 23:55:57 64° SSE 23:59:18 10° ENE
